Starlink 32027

operational
NORAD ID: 60143 Int'l Des: 2024-120 Owner: SPXS Country: US Constellation: starlink
LEOCIRCULAR

About Starlink 32027

Description loading...

Live Position

Loading 3D Globe...

Upcoming Passes

Altitude History

Altitude vs Time

uPlot chart will show altitude changes over time

Two-Line Element Set

1 60143U 24120J 25304.45293001 -.00000141 00000-0 73659-5 0 9993
2 60143 53.1594 199.8754 0001255 83.1979 276.9164 15.30184998 76675
Epoch: Oct 31, 2025 • Age: 10 hours

Current Status

Altitude 478.3 km
Velocity 7.63 km/s
Sub-Earth Point 41.09°N, 109.59°W
Launch Date Jun 27, 2024
Age 1.3 years
Type internet

Technical Details

Classification Payload
Mass 730.00 kg
Dry Mass 700.00 kg
Total Mass 730.00 kg
Length 0.30 m
Diameter 4.10 m
Span 29.00 m
Shape Box + pan
Manufacturer SPXS
Bus Type Starlink V2M
Phase Status In Orbit
Owner/State SPXS/US

Large Constellations

Loading constellations...